Weather in Qiziltepa

Uzbekistan     40°02′14″N   64°51′04″E
temp.,
°C
wind,
m/s
gust,
m/s
humid.,
%
clouds,
%
prec.,
mm/h
press.,
hPa
HPBL,
m
28 october, thu
thu2823:00+11nw71065100 0.0 1026501
02:00+9nw7973100 0.0 1027351
05:00+8nw667956 0.1 1027429
08:00+8wnw346864 0.0 1028328
11:00+11wnw445583 0.0 10281091
14:00+10wnw555975 0.0 1028888
17:00+11wnw334698 0.1 10271521
20:00+9nw33546 0.0 102893
29 october, fri
fri2923:00+7nnw335820 0.0 102943
02:00+6n23634 0.0 102935
05:00+6nne22660 0.0 102925
08:00+7ne22610 0.0 103036
11:00+11ese11470 0.0 1031713
14:00+14ese01360 0.0 1029978
17:00+14nne22330 0.0 1029674
20:00+11nne33420 0.0 102945
30 october, sat
sat3023:00+10nne33480 0.0 102921
02:00+9ne22490 0.0 102918
05:00+8ne22480 0.0 102917
08:00+9ne11460 0.0 103015
11:00+15sse01280 0.0 1029458
14:00+18nw11195 0.0 10281007
17:00+17n332074 0.0 102846
20:00+14n4631100 0.0 102985
31 october, sun
sun3123:00+13n4536100 0.0 102986
02:00+13n4637100 0.0 1028120
05:00+13nne6948100 0.0 1029195
08:00+13n4749100 0.0 1030222
11:00+14n464499 0.0 1031277
14:00+17n5631100 0.0 10301206
17:00+17n693172 0.0 1029426
20:00+13nne813390 0.0 1030295
1 november, mon
mon123:00+11nne711430 0.0 1030200
02:00+10nne610572 0.0 1030156
05:00+9nne57700 0.0 102989
08:00+9nne46712 0.0 1029111
11:00+16ne55410 0.0 1028658
14:00+19nne44350 0.0 10261301
17:00+18n56380 0.0 1025244
20:00+14nne711510 0.0 1025207